Starlink 33742

operational
NORAD ID: 63366 Int'l Des: 2025-063 Owner: SPXS Country: US Constellation: starlink
LEOCIRCULAR

Über Starlink 33742

Beschreibung wird geladen...

Live-Position

3D-Globus wird geladen...

Nächste Überflüge

Höhenverlauf

Altitude vs Time

uPlot chart will show altitude changes over time

Zweizeiliger Elementsatz

1 63366U 25063D 25304.24996649 .00032367 00000-0 11000-2 0 9998
2 63366 53.1595 293.5586 0001350 96.5848 263.5307 15.30204690 34891
Epoch: 31. Okt. 2025 • Age: 32 hours

Aktueller Status

Höhe 475.5 km
Geschwindigkeit 7.63 km/s
Subsatellitenpunkt 27.02°N, 165.81°W
Startdatum 26. März 2025
Alter 0.5 years
Typ internet

Technische Details

Klassifizierung Payload
Masse 575.00 kg
Trockenmasse 530.00 kg
Gesamtmasse 575.00 kg
Länge 0.30 m
Durchmesser 4.10 m
Spannweite 29.00 m
Form Box + pan
Hersteller SPXS
Bus-Typ Starlink V2MO
Phasenstatus In Orbit
Besitzer/Staat SPXS/US

Große Konstellationen

Loading constellations...